Weather in Naha

Japan     26°12′54″N   127°41′30″E
temp.,
°C
wind,
m/s
gust,
m/s
humid.,
%
clouds,
%
prec.,
mm/h
press.,
hPa
HPBL,
m
27 november, sat
sat2700:00+20ne5763100 0.1 1023855
03:00+20ne7962100 0.2 10211157
06:00+19ne61069100 0.3 1023869
09:00+20ne81058100 0.3 10251483
12:00+21ne71056100 0.1 10251678
15:00+21ene91155100 0.1 10231648
18:00+21ene91254100 0.0 10241592
21:00+21ene91254100 0.0 10261611
28 november, sun
sun2800:00+21e9125580 0.0 10261711
03:00+21e91255100 0.0 10251722
06:00+21ene9125682 0.0 10251714
09:00+21e9115344 0.0 10272043
12:00+21e91154100 0.1 10251971
15:00+21e81154100 0.1 10231972
18:00+21e81055100 0.1 10241584
21:00+21e81064100 0.3 10251308
29 november, mon
mon2900:00+21e81062100 0.4 10251518
03:00+20e81162100 0.7 10231421
06:00+20e8106592 0.1 10231251
09:00+21e7962100 0.3 10241343
12:00+22e7962100 0.1 10221357
15:00+21e7866100 0.3 10201216
18:00+21e796887 0.1 10201072
21:00+21e7107059 0.3 10211106
30 november, tue
tue3000:00+22ese796786 0.2 10201192
03:00+22ese796899 0.4 10191059
06:00+22ese587126 0.3 1018788
09:00+23ese676720 0.5 10181073
12:00+24se566557 0.0 10171171
15:00+24sse466740 0.3 10141021
18:00+21w6884100 5.1 1016499
21:00+19n11138396 7.3 10191050
1 december, wed
wed100:00+18n111371100 0.1 10191244
03:00+18n111362100 0.2 10191474
06:00+18n10135716 0.0 10201592
09:00+18n912549 0.0 10221741
12:00+18n10115781 0.0 10221804
15:00+18n9115315 0.1 10201834
18:00+17n9115529 0.0 10211704
21:00+17nne81055100 0.0 10221693